�������l�o���
Date,Time,MP-1(��Sv/h),MP-2(��Sv/h),MP-3(��Sv/h),MP-4(��Sv/h),MP-5(��Sv/h),MP-6(��Sv/h),MP-7(��Sv/h),MP-8(��Sv/h),����,����(m/s),���J
2019/12/26,00:00,0.709,1.020,0.685,1.284,0.898,0.409,0.715,0.678,��쐼,6.9,��
2019/12/26,00:10,0.709,1.018,0.686,1.279,0.897,0.410,0.716,0.676,��쐼,6.6,��
2019/12/26,00:20,0.710,1.019,0.686,1.283,0.896,0.409,0.714,0.678,��,6.7,��
2019/12/26,00:30,0.710,1.021,0.689,1.279,0.897,0.410,0.715,0.677,��,7.2,��
2019/12/26,00:40,0.709,1.021,0.686,1.281,0.899,0.410,0.715,0.678,��,8.2,��
2019/12/26,00:50,0.709,1.022,0.687,1.281,0.897,0.409,0.716,0.677,��,7.2,��
2019/12/26,01:00,0.711,1.020,0.687,1.282,0.897,0.410,0.716,0.677,��,6.7,��
2019/12/26,01:10,0.710,1.020,0.686,1.281,0.896,0.412,0.714,0.678,��쐼,6.4,��
2019/12/26,01:20,0.708,1.018,0.684,1.282,0.898,0.411,0.714,0.678,��쐼,5.3,��
2019/12/26,01:30,0.708,1.019,0.687,1.280,0.897,0.410,0.715,0.678,��쐼,4.5,��
2019/12/26,01:40,0.710,1.019,0.684,1.283,0.897,0.409,0.716,0.678,��쐼,2.7,��
2019/12/26,01:50,0.709,1.018,0.685,1.283,0.896,0.411,0.714,0.678,�쐼,0.7,��
2019/12/26,02:00,0.710,1.018,0.686,1.283,0.898,0.409,0.715,0.679,�k��,2.6,��
2019/12/26,02:10,0.710,1.020,0.686,1.283,0.899,0.410,0.716,0.678,��,2.1,��
2019/12/26,02:20,0.710,1.021,0.687,1.281,0.897,0.409,0.715,0.677,���k��,1.3,��
2019/12/26,02:30,0.711,1.021,0.686,1.283,0.897,0.410,0.716,0.676,���쐼,4.3,��
2019/12/26,02:40,0.710,1.019,0.685,1.281,0.898,0.409,0.715,0.676,���쐼,2.3,��
2019/12/26,02:50,0.712,1.020,0.686,1.283,0.897,0.409,0.714,0.677,��쐼,1.8,��
2019/12/26,03:00,0.712,1.019,0.686,1.281,0.899,0.410,0.716,0.678,�쐼,2.3,��
2019/12/26,03:10,0.710,1.019,0.687,1.279,0.898,0.410,0.714,0.678,�쐼,2.2,��
2019/12/26,03:20,0.711,1.018,0.687,1.281,0.896,0.411,0.715,0.676,�쐼,3.4,��
2019/12/26,03:30,0.709,1.021,0.685,1.280,0.898,0.410,0.715,0.677,��쐼,2.4,��
2019/12/26,03:40,0.711,1.018,0.687,1.279,0.899,0.408,0.715,0.677,��,2.3,��
2019/12/26,03:50,0.710,1.018,0.687,1.282,0.896,0.409,0.715,0.677,���쐼,3.6,��
2019/12/26,04:00,0.710,1.019,0.685,1.283,0.896,0.409,0.717,0.676,���k��,4.4,��
2019/12/26,04:10,0.711,1.019,0.687,1.280,0.896,0.408,0.715,0.677,���k��,5.8,��
2019/12/26,04:20,0.710,1.019,0.688,1.282,0.899,0.411,0.716,0.677,���k��,5.2,��
2019/12/26,04:30,0.710,1.019,0.687,1.283,0.896,0.409,0.717,0.677,���k��,3.8,��
2019/12/26,04:40,0.710,1.018,0.685,1.282,0.896,0.408,0.714,0.677,���k��,3.0,��
2019/12/26,04:50,0.711,1.021,0.687,1.282,0.898,0.409,0.715,0.678,�k��,2.6,��
2019/12/26,05:00,0.709,1.018,0.686,1.282,0.895,0.408,0.716,0.677,�k��,2.5,��
2019/12/26,05:10,0.710,1.018,0.688,1.280,0.897,0.408,0.716,0.678,���k��,2.3,��
2019/12/26,05:20,0.711,1.018,0.687,1.283,0.897,0.408,0.715,0.678,���k��,2.9,��
2019/12/26,05:30,0.710,1.018,0.687,1.284,0.898,0.408,0.714,0.679,�k��,3.8,��
2019/12/26,05:40,0.709,1.019,0.686,1.282,0.898,0.408,0.715,0.678,�k,6.9,��
2019/12/26,05:50,0.708,1.020,0.686,1.283,0.899,0.408,0.715,0.677,�k,8.8,��
2019/12/26,06:00,0.711,1.021,0.685,1.282,0.897,0.407,0.715,0.678,�k�k��,7.5,��
2019/12/26,06:10,0.710,1.020,0.685,1.282,0.898,0.407,0.717,0.677,�k,6.9,��
2019/12/26,06:20,0.709,1.018,0.686,1.283,0.897,0.407,0.714,0.676,�k,6.3,��
2019/12/26,06:30,0.710,1.020,0.686,1.284,0.896,0.408,0.714,0.679,�k�k��,5.5,��
2019/12/26,06:40,0.707,1.018,0.685,1.280,0.898,0.407,0.713,0.678,�k�k��,5.2,��
2019/12/26,06:50,0.708,1.018,0.686,1.281,0.898,0.407,0.715,0.677,�k�k��,4.7,��
2019/12/26,07:00,0.709,1.020,0.685,1.283,0.898,0.408,0.715,0.679,�k�k��,5.5,��
2019/12/26,07:10,0.708,1.020,0.687,1.282,0.897,0.407,0.714,0.677,�k�k��,5.8,��
2019/12/26,07:20,0.708,1.019,0.686,1.282,0.898,0.405,0.715,0.678,�k�k��,6.0,��
2019/12/26,07:30,0.709,1.020,0.685,1.283,0.897,0.407,0.714,0.677,�k,6.1,��
2019/12/26,07:40,0.708,1.019,0.687,1.282,0.898,0.407,0.713,0.678,�k,6.9,��
2019/12/26,07:50,0.710,1.019,0.686,1.284,0.898,0.407,0.713,0.677,�k,6.3,��
2019/12/26,08:00,0.709,1.020,0.686,1.283,0.899,0.405,0.713,0.676,�k,5.8,��
2019/12/26,08:10,0.709,1.018,0.686,1.282,0.897,0.405,0.714,0.677,�k,5.5,��
2019/12/26,08:20,0.709,1.021,0.684,1.282,0.895,0.406,0.713,0.679,�k�k��,4.9,��
2019/12/26,08:30,0.709,1.017,0.684,1.285,0.898,0.408,0.714,0.677,�k�k��,3.8,��
2019/12/26,08:40,0.707,1.018,0.684,1.284,0.897,0.405,0.714,0.677,�k�k��,3.3,��
2019/12/26,08:50,0.708,1.017,0.684,1.282,0.895,0.405,0.713,0.679,�k�k��,4.7,��
2019/12/26,09:00,0.710,1.018,0.684,1.285,0.897,0.408,0.714,0.678,�k�k��,4.4,��
2019/12/26,09:10,0.710,1.018,0.683,1.281,0.898,0.406,0.714,0.678,�k�k��,4.6,��
2019/12/26,09:20,0.711,1.017,0.685,1.283,0.896,0.405,0.715,0.678,�k�k��,4.2,��
2019/12/26,09:30,0.710,1.018,0.684,1.284,0.896,0.408,0.713,0.677,�k�k��,4.6,��
2019/12/26,09:40,0.709,1.020,0.684,1.283,0.899,0.406,0.713,0.677,�k��,4.6,��
2019/12/26,09:50,0.710,1.016,0.684,1.282,0.898,0.406,0.713,0.677,�k��,3.8,��
2019/12/26,10:00,0.709,1.017,0.684,1.284,0.899,0.405,0.713,0.677,�k�k��,3.9,��
2019/12/26,10:10,0.710,1.017,0.684,1.284,0.899,0.407,0.713,0.678,�k�k��,3.8,��
2019/12/26,10:20,0.713,1.017,0.685,1.282,0.899,0.406,0.714,0.679,�k�k��,3.9,��
2019/12/26,10:30,0.712,1.017,0.685,1.284,0.899,0.406,0.714,0.678,�k,3.5,��
2019/12/26,10:40,0.714,1.014,0.685,1.284,0.898,0.407,0.714,0.677,�k�k��,4.5,��
2019/12/26,10:50,0.711,1.013,0.686,1.283,0.901,0.407,0.713,0.679,�k�k��,5.5,��
2019/12/26,11:00,0.709,1.016,0.685,1.285,0.898,0.406,0.714,0.678,�k,5.2,��
2019/12/26,11:10,0.711,1.015,0.686,1.280,0.898,0.406,0.714,0.680,�k,4.5,��
2019/12/26,11:20,0.711,1.015,0.686,1.283,0.895,0.408,0.712,0.677,�k,4.2,��
2019/12/26,11:30,0.712,1.013,0.685,1.283,0.897,0.405,0.713,0.677,�k,5.2,��
2019/12/26,11:40,0.709,1.015,0.685,1.280,0.897,0.405,0.715,0.678,�k,4.3,�L
2019/12/26,11:50,0.710,1.016,0.686,1.284,0.897,0.407,0.713,0.678,�k�k��,4.6,�L
2019/12/26,12:00,0.711,1.016,0.686,1.284,0.894,0.406,0.713,0.679,�k,4.1,�L
2019/12/26,12:10,0.713,1.017,0.685,1.281,0.897,0.406,0.712,0.678,�k,3.5,��
2019/12/26,12:20,0.709,1.018,0.686,1.284,0.898,0.407,0.712,0.679,�k�k��,4.3,�L
2019/12/26,12:30,0.713,1.018,0.686,1.284,0.898,0.405,0.714,0.679,�k,4.3,�L
2019/12/26,12:40,0.711,1.019,0.687,1.283,0.899,0.406,0.714,0.677,�k,5.0,�L
2019/12/26,12:50,0.710,1.016,0.687,1.282,0.898,0.408,0.714,0.679,�k,3.3,�L
2019/12/26,13:00,0.713,1.015,0.686,1.281,0.897,0.408,0.713,0.678,�k,4.5,�L
2019/12/26,13:10,0.710,1.012,0.688,1.281,0.897,0.409,0.715,0.678,�k�k��,4.5,�L
2019/12/26,13:20,0.710,1.013,0.688,1.282,0.897,0.410,0.714,0.678,�k�k��,4.9,�L
2019/12/26,13:30,0.708,1.012,0.685,1.281,0.896,0.408,0.715,0.676,�k�k��,5.2,�L
2019/12/26,13:40,0.709,1.011,0.687,1.283,0.895,0.410,0.712,0.678,�k�k��,4.6,�L
2019/12/26,13:50,0.710,1.011,0.685,1.283,0.895,0.408,0.715,0.679,�k�k��,3.6,�L
2019/12/26,14:00,0.707,1.011,0.686,1.281,0.893,0.409,0.713,0.677,�k�k��,4.3,�L
2019/12/26,14:10,0.707,1.010,0.685,1.281,0.895,0.408,0.713,0.679,�k�k��,4.1,�L
2019/12/26,14:20,0.708,1.010,0.684,1.281,0.895,0.408,0.714,0.676,�k�k��,4.9,�L
2019/12/26,14:30,0.707,1.009,0.684,1.281,0.892,0.410,0.714,0.677,�k�k��,5.2,�L
2019/12/26,14:40,0.707,1.010,0.685,1.280,0.893,0.409,0.711,0.676,�k�k��,5.8,�L
2019/12/26,14:50,0.707,1.008,0.682,1.280,0.892,0.408,0.710,0.676,�k�k��,6.0,�L
2019/12/26,15:00,0.706,1.011,0.682,1.278,0.893,0.406,0.713,0.676,�k�k��,5.5,�L
2019/12/26,15:10,0.708,1.013,0.682,1.281,0.891,0.408,0.712,0.675,�k��,5.2,�L
2019/12/26,15:20,0.706,1.008,0.684,1.280,0.890,0.406,0.715,0.676,�k��,5.5,�L
2019/12/26,15:30,0.704,1.009,0.684,1.278,0.892,0.406,0.713,0.678,�k��,5.5,�L
2019/12/26,15:40,0.706,1.012,0.685,1.278,0.889,0.408,0.712,0.676,�k��,5.8,�L
2019/12/26,15:50,0.706,1.005,0.683,1.278,0.888,0.407,0.712,0.677,�k�k��,5.8,�L
2019/12/26,16:00,0.705,1.007,0.681,1.278,0.889,0.407,0.713,0.677,�k�k��,5.2,�L
2019/12/26,16:10,0.705,1.006,0.682,1.276,0.890,0.407,0.714,0.676,�k�k��,5.3,�L
2019/12/26,16:20,0.706,1.006,0.680,1.275,0.887,0.407,0.713,0.676,�k�k��,5.5,�L
2019/12/26,16:30,0.707,1.006,0.680,1.278,0.886,0.407,0.713,0.675,�k�k��,5.3,�L
2019/12/26,16:40,0.704,1.006,0.680,1.276,0.886,0.407,0.712,0.676,�k��,5.8,�L
2019/12/26,16:50,0.704,1.006,0.681,1.274,0.888,0.408,0.713,0.675,�k��,5.6,�L
2019/12/26,17:00,0.702,1.004,0.682,1.274,0.884,0.408,0.712,0.675,�k�k��,5.5,�L
2019/12/26,17:10,0.703,1.001,0.681,1.273,0.885,0.407,0.712,0.674,�k�k��,5.5,�L
2019/12/26,17:20,0.703,1.004,0.681,1.273,0.886,0.408,0.712,0.676,�k�k��,5.2,�L
2019/12/26,17:30,0.701,1.002,0.682,1.272,0.884,0.406,0.712,0.674,�k�k��,5.5,�L
2019/12/26,17:40,0.702,1.002,0.679,1.274,0.885,0.407,0.712,0.675,�k��,5.3,�L
2019/12/26,17:50,0.703,0.998,0.678,1.269,0.884,0.407,0.713,0.675,�k�k��,5.6,�L
2019/12/26,18:00,0.702,0.999,0.679,1.272,0.882,0.407,0.712,0.673,�k�k��,5.2,�L
2019/12/26,18:10,0.702,0.999,0.678,1.272,0.882,0.406,0.711,0.675,�k��,4.9,�L
2019/12/26,18:20,0.699,1.000,0.677,1.271,0.884,0.406,0.711,0.674,�k�k��,5.2,�L
2019/12/26,18:30,0.701,0.999,0.678,1.267,0.883,0.405,0.712,0.674,�k��,5.3,�L
2019/12/26,18:40,0.699,0.999,0.679,1.270,0.881,0.406,0.710,0.673,�k�k��,5.2,�L
2019/12/26,18:50,0.701,0.998,0.677,1.268,0.881,0.406,0.711,0.674,�k�k��,5.6,�L
2019/12/26,19:00,0.699,1.000,0.675,1.271,0.881,0.404,0.712,0.674,�k�k��,4.7,�L
2019/12/26,19:10,0.699,0.998,0.675,1.268,0.880,0.405,0.713,0.675,�k�k��,5.0,�L
2019/12/26,19:20,0.700,0.998,0.677,1.268,0.881,0.405,0.710,0.672,�k�k��,4.9,�L
2019/12/26,19:30,0.699,0.998,0.677,1.271,0.881,0.405,0.711,0.672,�k�k��,4.9,�L
2019/12/26,19:40,0.699,0.998,0.676,1.269,0.881,0.403,0.711,0.673,�k��,5.7,�L
2019/12/26,19:50,0.698,0.999,0.675,1.270,0.880,0.403,0.712,0.673,�k�k��,5.5,�L
2019/12/26,20:00,0.699,0.998,0.676,1.267,0.882,0.404,0.710,0.673,�k�k��,5.6,�L
2019/12/26,20:10,0.698,1.001,0.677,1.269,0.879,0.403,0.710,0.673,�k�k��,5.5,�L
2019/12/26,20:20,0.699,0.997,0.676,1.267,0.881,0.405,0.710,0.674,�k��,5.5,�L
2019/12/26,20:30,0.699,0.998,0.675,1.268,0.881,0.403,0.710,0.674,�k��,6.0,�L
2019/12/26,20:40,0.699,0.999,0.677,1.270,0.880,0.404,0.710,0.674,�k��,5.0,�L
2019/12/26,20:50,0.697,0.999,0.676,1.268,0.881,0.404,0.710,0.674,�k��,4.9,�L
2019/12/26,21:00,0.699,0.999,0.676,1.269,0.881,0.405,0.711,0.673,�k�k��,5.5,��
2019/12/26,21:10,0.699,1.002,0.676,1.269,0.881,0.404,0.710,0.675,�k��,6.1,��
2019/12/26,21:20,0.700,0.999,0.675,1.268,0.880,0.402,0.712,0.674,�k��,5.6,��
2019/12/26,21:30,0.698,0.998,0.676,1.268,0.882,0.404,0.710,0.673,�k��,5.6,��
2019/12/26,21:40,0.699,0.999,0.678,1.269,0.881,0.402,0.711,0.674,�k��,5.6,��
2019/12/26,21:50,0.699,1.001,0.677,1.267,0.881,0.404,0.712,0.675,�k��,5.5,��
2019/12/26,22:00,0.698,1.001,0.676,1.271,0.882,0.404,0.711,0.676,�k��,5.0,��
2019/12/26,22:10,0.698,1.000,0.677,1.267,0.881,0.403,0.713,0.674,�k��,5.5,��
2019/12/26,22:20,0.699,1.000,0.676,1.271,0.879,0.405,0.710,0.674,�k��,5.3,��
2019/12/26,22:30,0.701,0.997,0.678,1.269,0.880,0.405,0.712,0.673,�k�k��,5.3,��
2019/12/26,22:40,0.700,0.999,0.675,1.269,0.881,0.404,0.709,0.675,�k��,5.3,��
2019/12/26,22:50,0.699,1.000,0.676,1.267,0.880,0.404,0.712,0.674,�k��,5.2,��
2019/12/26,23:00,0.699,0.999,0.678,1.269,0.881,0.405,0.712,0.675,�k�k��,5.3,��
2019/12/26,23:10,0.700,1.000,0.676,1.268,0.880,0.403,0.712,0.673,�k�k��,5.2,��
2019/12/26,23:20,0.699,0.999,0.678,1.269,0.883,0.403,0.712,0.674,�k�k��,5.0,�L
2019/12/26,23:30,0.699,1.000,0.678,1.270,0.881,0.405,0.711,0.675,�k�k��,5.3,��
2019/12/26,23:40,0.701,1.000,0.676,1.269,0.881,0.403,0.712,0.674,�k�k��,5.8,��
2019/12/26,23:50,0.700,0.999,0.677,1.268,0.883,0.404,0.712,0.675,�k�k��,4.6,�L
